Regional Weather Roundup
Issued by NWS Northern Indiana

Home | Current Version | Previous Version | Graphics & Text | Print | Product List | Glossary On
Versions: 1 2 3 4 5 6 7 8 9 10 11 12 13 14 15 16 17 18 19 20 21 22 23 24 25 26 27 28 29 30 31 32 33 34 35 36 37 38 39 40 41 42 43 44 45 46 47 48 49 50
000
ASUS43 KIWX 192110
RWRIWX

KIWX WEATHER ROUNDUP
NATIONAL WEATHER SERVICE NORTHERN INDIANA
400 PM EST FRI JAN 19 2018

NOTE: "FAIR" INDICATES FEW OR NO CLOUDS BELOW 12,000 FEET WITH NO
SIGNIFICANT WEATHER AND/OR OBSTRUCTIONS TO VISIBILITY.

* THESE STATIONS ARE NOT UNDER NWS QUALITY CONTROL. THEY ALSO MAY NOT
  REPORT WEATHER SUCH AS PRECIPITATION OR FOG.

INZ001>027-192200-
NORTHERN INDIANA

CITY           SKY/WX    TMP DP  RH WIND       PRES   REMARKS
GARY*          PTSUNNY   39  23  52 S17G29    29.82S
VALPARAISO     FAIR      36  25  64 S16G24    29.84S
MICHIGAN CITY* FAIR      36  25  64 S17G23    29.82S
LAPORTE*       FAIR      34  24  67 S15G22    29.84R WCI  24
KNOX*          FAIR      36  25  64 SW13G26   29.85S
SOUTH BEND     FAIR      35  22  58 SW21G28   29.84S WCI  24
ELKHART*       FAIR      36  21  55 S12G21    29.84S
GOSHEN           N/A    N/A N/A N/A MISG      29.85S
MONTICELLO*    FAIR      37  22  55 S15       29.89S
LOGANSPORT*    FAIR      34  27  75 S16       29.91F WCI  23
ROCHESTER*     FAIR      37  25  60 SW15      29.88F
WARSAW*        FAIR      36  23  60 S10       29.87S
AUBURN*        FAIR      36 -49   2 SW10G17   29.88S
FORT WAYNE     PTSUNNY   36  25  64 SW18G24   29.91F
HUNTINGTON*    FAIR      36  21  54 SW10G17   29.91S
PERU/GRISSOM   FAIR      36  26  67 S15       29.90F
MARION*        FAIR      35  24  64 S14       29.94F WCI  25

$$
INZ028>050-192200-
CENTRAL INDIANA

CITY           SKY/WX    TMP DP  RH WIND       PRES   REMARKS
LAFAYETTE      FAIR      36  23  59 S13       29.92F
MUNCIE*        FAIR      36  19  50 SW16G23   29.95F
INDIANAPOLIS   PTSUNNY   40  23  50 S13       29.98F

$$
MIZ043>046-050>051-056>058-064>065-071>073-077>080-192200-
SOUTHWEST LOWER MICHIGAN

CITY           SKY/WX    TMP DP  RH WIND       PRES   REMARKS
BATTLE CREEK   FAIR      33  22  63 S15       29.80F WCI  23
BENTON HARBOR  FAIR      36  21  54 S12G23    29.80F
COLDWATER*     FAIR      35  21  57 SW9G20    29.83S WCI  28
HILLSDALE*     FAIR      34  21  60 S12       29.82S WCI  25
HOLLAND        FAIR      38  24  57 S12       29.77S
GRAND RAPIDS   CLOUDY    37  22  54 SW17      29.76F
KALAMAZOO      FAIR      35  22  58 S16       29.80F WCI  25
STURGIS*       FAIR      34  23  63 SW16G22   29.82F WCI  24
THREE RIVERS*  FAIR      35  22  60 SW17      29.83S WCI  24

$$
OHZ001>008-015>018-024>025-192200-
NORTHWEST OHIO

CITY           SKY/WX    TMP DP  RH WIND       PRES   REMARKS
WAUSEON*       FAIR      34  23  64 SW18G25   29.87F WCI  23
DEFIANCE       FAIR      35  21  56 SW16G25   29.90S WCI  25
FINDLAY        FAIR      34  22  61 S17       29.92F WCI  23
TOLEDO EXPRESS FAIR      35  23  61 SW20G28   29.89R WCI  24
TOLEDO METCALF FAIR      35  23  61 SW16G26   29.91S WCI  25
LIMA           FAIR      34  21  59 S18       29.93F WCI  23

$$
AND FOR LAKE MICHIGAN COASTAL AND OPEN LAKE BUOY OBSERVATIONS

STATION/POSITION TEMP    WIND        PRES    VSBY  WAVE
                 AIR SEA DIR/SP/G                  HT/PER
                 (F)     (DEG/KT/KT) (MB)    (MI)  (FT/S)
CALUMET HARBOR    38     190/ 14/ 21 1008.3F
MICHIGAN CITY     36     180/ 12/ 15   N/A
BURNS HARBOR      36     200/ 17/ 25 1010.2S
SAINT JOSEPH      37     200/  7/ 16 1009.1

$$
&&




USA.gov is the U.S. government's official web portal to all federal, state and local government web resources and services.